Regional Weather Roundup
Issued by NWS Sterling, VA

Home | Current Version | Previous Version | Graphics & Text | Print | Product List | Glossary On
Versions: 1 2 3 4 5 6 7 8 9 10 11 12 13 14 15 16 17 18 19 20 21 22 23 24 25 26 27 28
000
ASUS41 KLWX 180210
RWRLWX

REGIONAL WEATHER ROUNDUP
NATIONAL WEATHER SERVICE BALTIMORE MD/WASHINGTON DC
1000 PM EDT THU APR 17 2014

Note: "FAIR" indicates few or no clouds below 12,000 feet
with no significant weather and/or obstructions to visibility.
 TC=TEMPERATURE CELSIUS

 * =Non NWS site. Station does not report precipitation (e.g. rain,
    snow, etc.), thunder, or fog.

DCZ001-MDZ009-015-VAZ040>042-051-053>054-180300-
WASHINGTON METRO

CITY           SKY/WX    TMP DP  RH WIND       PRES   REMARKS
WASHINGTON NAT CLEAR     45  32  60 E10       30.59R
DULLES         CLEAR     43  31  62 SE9       30.56R
ANDREWS AFB    CLEAR     41  31  68 E8        30.58R
FT BELVOIR     CLEAR     44  32  63 VRB5      30.59R
QUANTICO       CLEAR     46  33  60 E10       30.59R
COLLEGE PARK*  CLEAR     43  32  65 E8        30.59R
LEESBURG*      CLEAR     45  34  65 SE9       30.57R
MANASSAS*      CLEAR     45  34  65 E8        30.56R
GAITHERSBURG*  CLEAR     43  30  61 SE8       30.59R

$$

MDZ006>007-011-014-180300-
BALTIMORE METRO

CITY           SKY/WX    TMP DP  RH WIND       PRES   REMARKS
BWI AIRPORT    PTCLDY    42  31  64 SE14      30.59R
MD SCIENCE CTR   N/A     44  33  65 MISG      30.59R
MARTIN STATE   PTCLDY    43  34  70 E13       30.62R
ANNAPOLIS      PTCLDY    42  33  70 E15       30.59S
FORT MEADE*    CLEAR     41  32  70 E7        30.61R

$$

MDZ012-015-019>023-180300-
MARYLAND EASTERN SHORE

CITY           SKY/WX    TMP DP  RH WIND       PRES   REMARKS
OCEAN CITY     CLOUDY    42  33  70 NE14G23   30.58F
SALISBURY      CLOUDY    43  32  65 NE12      30.57F
BAY BRIDGE AP* CLEAR     41  32  70 E8G16     30.60S
CAMBRIDGE*     MOCLDY    43  32  65 E6        30.58F

$$

MDZ017>025-180300-
SOUTHERN MARYLAND

CITY           SKY/WX    TMP DP  RH WIND       PRES   REMARKS
PATUXENT RIVER PTCLDY    41  31  67 E15       30.57F
ST INIGOES     MOCLDY    42  32  67 NE8       30.57S
LEONARDTOWN*   PTCLDY    41  32  70 E8        30.58F

$$

MDZ003>005-180300-
NORTH CENTRAL MARYLAND

CITY           SKY/WX    TMP DP  RH WIND       PRES   REMARKS
FREDERICK*     CLEAR     43  34  70 E7        30.59R
HAGERSTOWN APT CLEAR     45  30  55 SE9       30.52R
WESTMINSTER*   CLEAR     43  34  70 SE7       30.55S

$$

MDZ501>502-180300-
WESTERN MARYLAND

CITY           SKY/WX    TMP DP  RH WIND       PRES   REMARKS
OAKLAND*       CLEAR     39  19  45 SE17      30.39S
CUMBERLAND*    CLEAR     50  30  46 SE3       30.51S

$$

VAZ025>031-180300-
SHENANDOAH VALLEY

CITY           SKY/WX    TMP DP  RH WIND       PRES   REMARKS
WINCHESTER*    CLEAR     45  30  57 SE6       30.51S
STAUNTON*      CLEAR     47  29  51 SE5       30.50R

$$

WVZ021-048>050-054>055-180300-
EASTERN WEST VIRGINIA PANHANDLE

CITY           SKY/WX    TMP DP  RH WIND       PRES   REMARKS
MARTINSBURG    CLEAR     46  29  51 VRB6      30.53R
PETERSBURG*    CLEAR     50  34  54 CALM      30.46S

$$

VAZ036>039-050-180300-
CENTRAL FOOTHILLS

CITY           SKY/WX    TMP DP  RH WIND       PRES   REMARKS
CHARLOTTESVILL CLEAR     48  30  49 SE8       30.53R
CULPEPER*      CLEAR     46  34  61 E3        30.55R

$$

VAZ055>057-180300-
NORTH AND CENTRAL PIEDMONT

CITY           SKY/WX    TMP DP  RH WIND       PRES   REMARKS
FREDERICKSBRG* CLEAR     46  36  66 E7        30.56R
STAFFORD*      CLEAR     45  35  68 E8        30.60R

$$

NCZ024-NYZ072-PAZ021-071-VAZ022-071-180300-
OTHER REGIONAL OBSERVATIONS

CITY           SKY/WX    TMP DP  RH WIND       PRES   REMARKS
NEW YORK CITY  CLEAR     41  30  65 VRB6      30.66F
PHILADELPHIA   PTCLDY    40  27  59 E9        30.63S
PITTSBURGH     PTCLDY    54  27  35 SE14      30.34S
ROANOKE        CLEAR     51  23  33 E5        30.48S
RICHMOND       CLEAR     45  34  65 E7        30.54R
RALEIGH        PTCLDY    53  39  59 E10       30.46R

$$

ANZ530>537-180300-
MARINE OBSERVATIONS

STATION/POSITION TIME  TEMP    WIND        PRES
                       AIR SEA DIR/SP/G
                 (UTC) (F)     (DEG/KT/KT) (MB)
THOMAS PT LIGHT  0200   42 52  100/ 16/ 18 1036.2R
BALT KEY BRIDGE  0200   43     110/ 16/ 18 1035.8S
COVE POINT       0200   42     110/ 13/ 16 1035.4F
LEWISETTA        0200   44 53   90/ 15/ 18 1034.8S
SOLOMONS ISLAND  0200      53                N/A
PINEY POINT      0200           90/ 11/ 15   N/A

$$




USA.gov is the U.S. government's official web portal to all federal, state and local government web resources and services.